TimeAST,TemperatureF,Dew PointF,Humidity,Sea Level PressureIn,VisibilityMPH,Wind Direction,Wind SpeedMPH,Gust SpeedMPH,PrecipitationIn,Events,Conditions,WindDirDegrees,DateUTC
1:00 AM,82.4,77.0,84,29.89,-9999.0,North,-9999.0,-,N/A,,Unknown,0,2012-10-08 05:00:00
2:00 AM,83,78,80,,6,ESE,11.5,,,,Clear,110,2012-10-08 06:00:00
2:00 AM,82.4,77.0,84,29.89,-9999.0,North,-9999.0,-,N/A,,Unknown,0,2012-10-08 06:00:00
3:00 AM,-9999,-9999,N/A,29.86,-9999.0,North,-9999.0,-,N/A,,Unknown,0,2012-10-08 07:00:00
4:00 AM,82.4,78.8,89,29.86,-9999.0,North,-9999.0,-,N/A,,Unknown,0,2012-10-08 08:00:00
5:00 AM,82.4,78.8,89,29.86,-9999.0,North,-9999.0,-,N/A,,Unknown,0,2012-10-08 09:00:00
6:00 AM,82.4,78.8,89,29.89,-9999.0,North,-9999.0,-,N/A,,Unknown,0,2012-10-08 10:00:00
7:00 AM,84.2,78.8,84,29.92,-9999.0,North,-9999.0,-,N/A,,Unknown,0,2012-10-08 11:00:00
8:00 AM,87,79,71,29.94,19,East,18.4,,,,Partly Cloudy,100,2012-10-08 12:00:00
8:00 AM,87.8,78.8,75,29.92,6.2,East,18.4,-,N/A,,Scattered Clouds,100,2012-10-08 12:00:00
9:00 AM,87.8,78.8,75,29.95,6.2,East,19.6,-,N/A,,Scattered Clouds,100,2012-10-08 13:00:00
10:00 AM,87.8,77.0,70,29.95,6.2,East,20.7,-,N/A,,Scattered Clouds,100,2012-10-08 14:00:00
11:00 AM,89,78,63,29.97,19,East,20.7,,,,Partly Cloudy,100,2012-10-08 15:00:00
11:00 AM,87.8,78.8,75,29.95,6.2,East,20.7,-,N/A,,Scattered Clouds,100,2012-10-08 15:00:00
12:00 PM,89.6,78.8,70,29.92,-9999.0,North,-9999.0,-,N/A,,Unknown,0,2012-10-08 16:00:00
1:00 PM,89.6,77.0,66,29.92,6.2,ESE,18.4,-,N/A,,Scattered Clouds,110,2012-10-08 17:00:00
2:00 PM,88,77,62,29.91,19,East,18.4,,,,Partly Cloudy,100,2012-10-08 18:00:00
2:00 PM,87.8,77.0,70,29.89,6.2,East,18.4,-,N/A,,Scattered Clouds,100,2012-10-08 18:00:00
3:00 PM,89.6,77.0,66,29.89,6.2,East,17.3,-,N/A,,Scattered Clouds,100,2012-10-08 19:00:00
6:00 PM,86.0,77.0,74,29.86,6.2,East,15.0,-,N/A,,Scattered Clouds,90,2012-10-08 22:00:00
7:00 PM,84.2,77.0,79,29.89,6.2,East,12.7,-,N/A,,Partly Cloudy,90,2012-10-08 23:00:00
8:00 PM,83,77,77,29.94,19,East,13.8,,,,Scattered Clouds,100,2012-10-09 00:00:00
8:00 PM,84.2,77.0,79,29.92,6.2,East,13.8,-,N/A,,Partly Cloudy,100,2012-10-09 00:00:00
11:00 PM,83,76,74,,19,ESE,11.5,,,,Clear,110,2012-10-09 03:00:00
11:00 PM,82.4,77.0,84,29.95,-9999.0,North,-9999.0,-,N/A,,Unknown,0,2012-10-09 03:00:00